﻿TIME_UTC_SECONDS;TIME_UTC_STR;AIR_TEMP;TRACK_TEMP;HUMIDITY;PRESSURE;WIND_SPEED;WIND_DIRECTION;
1557316847;5/8/2019 12:00:47 PM;10.7778;15.5556;91;990.959;2.12187;126;
1557316908;5/8/2019 12:01:48 PM;10.7778;15.5556;91;990.993;1.06093;134;
1557316968;5/8/2019 12:02:48 PM;10.6667;15.5556;91;990.959;1.06093;135;
1557317028;5/8/2019 12:03:48 PM;10.6667;15.5556;91;990.959;0;135;
1557317088;5/8/2019 12:04:48 PM;10.6667;15.5556;92;990.891;0;135;
1557317148;5/8/2019 12:05:48 PM;10.6667;15.5556;91;990.891;0;135;
1557317208;5/8/2019 12:06:48 PM;10.6667;15.5556;92;990.891;0;135;
1557317268;5/8/2019 12:07:48 PM;10.7222;15.5556;92;990.857;0;150;
1557317328;5/8/2019 12:08:48 PM;10.7222;15.5556;92;990.824;1.06093;172;
1557317388;5/8/2019 12:09:48 PM;10.7222;15.5556;92;990.824;1.06093;172;
1557317448;5/8/2019 12:10:48 PM;10.7778;15.5556;92;990.857;0;172;
1557317508;5/8/2019 12:11:48 PM;10.8333;15.5556;92;990.925;1.06093;223;
1557317569;5/8/2019 12:12:49 PM;10.8333;15.5556;92;990.925;1.06093;138;
1557317629;5/8/2019 12:13:49 PM;10.8333;15.5556;92;990.925;2.12187;138;
1557317689;5/8/2019 12:14:49 PM;10.8333;15.5556;92;990.925;0;136;
1557317749;5/8/2019 12:15:49 PM;10.7778;15.5556;92;990.925;0;136;
1557317809;5/8/2019 12:16:49 PM;10.7778;15.5556;92;990.857;3.1828;136;
1557317869;5/8/2019 12:17:49 PM;10.7778;15.5556;92;990.824;2.12187;149;
1557317929;5/8/2019 12:18:49 PM;10.7778;15.5556;92;990.824;0;149;
1557317989;5/8/2019 12:19:49 PM;10.8333;15.5556;92;990.79;0;136;
1557318049;5/8/2019 12:20:49 PM;10.8333;15.5556;92;990.722;1.06093;182;
1557318109;5/8/2019 12:21:49 PM;10.8333;15.5556;92;990.722;0;175;
1557318169;5/8/2019 12:22:49 PM;10.8333;15.5556;92;990.688;3.1828;127;
1557318230;5/8/2019 12:23:50 PM;10.8333;15.5556;92;990.654;0;128;
1557318290;5/8/2019 12:24:50 PM;10.8333;15.5556;92;990.654;2.12187;199;
1557318350;5/8/2019 12:25:50 PM;10.8889;15.5556;92;990.654;0;195;
1557318410;5/8/2019 12:26:50 PM;10.9444;15.5556;92;990.654;3.1828;142;
1557318470;5/8/2019 12:27:50 PM;10.9444;15.5556;92;990.688;2.12187;143;
1557318530;5/8/2019 12:28:50 PM;10.9444;15.5556;92;990.688;4.24374;118;
1557318590;5/8/2019 12:29:50 PM;10.9444;15.5556;92;990.688;4.24374;158;
1557318650;5/8/2019 12:30:50 PM;10.9444;15.5556;92;990.62;1.06093;133;
1557318710;5/8/2019 12:31:50 PM;10.9444;15.5556;92;990.587;3.1828;128;
1557318770;5/8/2019 12:32:50 PM;10.9444;15.5556;92;990.587;0;152;
1557318831;5/8/2019 12:33:51 PM;10.9444;15.5556;92;990.519;3.1828;174;
1557318891;5/8/2019 12:34:51 PM;10.9444;15.5556;92;990.451;2.12187;147;
1557318951;5/8/2019 12:35:51 PM;10.9444;15.5556;92;990.383;1.06093;196;
1557319011;5/8/2019 12:36:51 PM;11;15.5556;92;990.383;1.06093;157;
1557319071;5/8/2019 12:37:51 PM;11.0556;15.5556;92;990.485;3.1828;128;
1557319131;5/8/2019 12:38:51 PM;11;15.5556;92;990.485;3.1828;142;
1557319191;5/8/2019 12:39:51 PM;11;15.5556;92;990.485;4.24374;167;
1557319251;5/8/2019 12:40:51 PM;10.9444;15.5556;92;990.383;4.24374;130;
1557319311;5/8/2019 12:41:51 PM;10.8889;15.5556;92;990.383;2.12187;138;
1557319371;5/8/2019 12:42:51 PM;10.8889;15.5556;92;990.451;3.1828;142;
1557319431;5/8/2019 12:43:51 PM;10.8889;15.5556;92;990.417;3.1828;109;
1557319492;5/8/2019 12:44:52 PM;10.8889;15.5556;92;990.519;3.1828;161;
1557319552;5/8/2019 12:45:52 PM;10.8889;15.5556;92;990.519;7.42654;123;
1557319612;5/8/2019 12:46:52 PM;10.8889;15.5556;92;990.553;2.12187;161;
1557319672;5/8/2019 12:47:52 PM;10.8889;15.5556;92;990.485;1.06093;161;
1557319732;5/8/2019 12:48:52 PM;10.9444;15.5556;92;990.417;2.12187;178;
1557319792;5/8/2019 12:49:52 PM;10.9444;15.5556;92;990.383;2.12187;178;
1557319852;5/8/2019 12:50:52 PM;10.9444;15.5556;92;990.383;2.12187;173;
1557319912;5/8/2019 12:51:52 PM;10.9444;15.5556;92;990.349;0;171;
1557319972;5/8/2019 12:52:52 PM;10.9444;15.5556;92;990.349;1.06093;171;
1557320032;5/8/2019 12:53:52 PM;11;15.5556;92;990.349;3.1828;142;
1557320092;5/8/2019 12:54:52 PM;11;15.5556;92;990.316;5.30467;130;
1557320153;5/8/2019 12:55:53 PM;10.9444;15.5556;92;990.349;3.1828;165;
1557320213;5/8/2019 12:56:53 PM;11;15.5556;93;990.349;1.06093;142;
1557320273;5/8/2019 12:57:53 PM;11.0556;15.5556;93;990.349;2.12187;128;
1557320333;5/8/2019 12:58:53 PM;11.0556;15.5556;93;990.349;2.12187;165;
1557320393;5/8/2019 12:59:53 PM;11.1111;15.5556;93;990.349;1.06093;214;
1557320453;5/8/2019 1:00:53 PM;11.1111;15.5556;93;990.349;3.1828;111;
1557320513;5/8/2019 1:01:53 PM;11.1111;15.5556;92;990.316;4.24374;136;
1557320573;5/8/2019 1:02:53 PM;11.1111;15.5556;92;990.316;0;97;
1557320633;5/8/2019 1:03:53 PM;11.0556;15.5556;92;990.316;2.12187;113;
1557320693;5/8/2019 1:04:53 PM;11.0556;15.5556;92;990.349;2.12187;138;
1557320753;5/8/2019 1:05:53 PM;11.0556;15.5556;92;990.282;2.12187;136;
1557320814;5/8/2019 1:06:54 PM;11.1111;15.5556;93;990.349;2.12187;159;
1557320874;5/8/2019 1:07:54 PM;11.1111;15.5556;92;990.316;1.06093;187;
1557320934;5/8/2019 1:08:54 PM;11.1111;15.5556;92;990.383;1.06093;206;
1557320994;5/8/2019 1:09:54 PM;11.0556;15.5556;92;990.383;4.24374;148;
1557321054;5/8/2019 1:10:54 PM;11.0556;15.5556;92;990.417;3.1828;109;
1557321114;5/8/2019 1:11:54 PM;11.0556;15.5556;92;990.451;2.12187;140;
1557321174;5/8/2019 1:12:54 PM;11;15.5556;92;990.417;2.12187;128;
1557321234;5/8/2019 1:13:54 PM;11;15.5556;92;990.383;1.06093;132;
1557321294;5/8/2019 1:14:54 PM;11.0556;15.5556;92;990.383;2.12187;188;
1557321354;5/8/2019 1:15:54 PM;11.0556;15.5556;92;990.417;1.06093;158;
1557321414;5/8/2019 1:16:54 PM;11.0556;15.5556;92;990.349;2.12187;164;
1557321475;5/8/2019 1:17:55 PM;11.0556;15.5556;92;990.417;1.06093;159;
1557321535;5/8/2019 1:18:55 PM;11.0556;15.5556;92;990.383;2.12187;160;
1557321595;5/8/2019 1:19:55 PM;11.0556;15.5556;92;990.383;4.24374;128;
1557321655;5/8/2019 1:20:55 PM;11;15.5556;92;990.417;2.12187;211;
1557321715;5/8/2019 1:21:55 PM;10.9444;15.5556;92;990.417;2.12187;146;
1557321775;5/8/2019 1:22:55 PM;10.9444;15.5556;92;990.417;0;167;
1557321835;5/8/2019 1:23:55 PM;10.9444;15.5556;92;990.451;1.06093;165;
1557321895;5/8/2019 1:24:55 PM;10.9444;15.5556;92;990.417;1.06093;123;
1557321955;5/8/2019 1:25:55 PM;10.9444;15.5556;92;990.417;2.12187;134;
1557322015;5/8/2019 1:26:55 PM;10.9444;15.5556;92;990.383;2.12187;234;
1557322076;5/8/2019 1:27:56 PM;11;15.5556;92;990.282;1.06093;224;
1557322136;5/8/2019 1:28:56 PM;10.9444;15.5556;92;990.248;1.06093;150;
1557322196;5/8/2019 1:29:56 PM;11.0556;15.5556;92;990.248;0;192;
1557322256;5/8/2019 1:30:56 PM;11.1111;15.5556;92;990.18;0;192;
1557322316;5/8/2019 1:31:56 PM;11.1667;15.5556;93;990.214;0;246;
1557322376;5/8/2019 1:32:56 PM;11.2222;15.5556;92;990.248;1.06093;296;
1557322436;5/8/2019 1:33:56 PM;11.2778;15.5556;92;990.248;1.06093;232;
1557322496;5/8/2019 1:34:56 PM;11.2222;15.5556;92;990.214;1.06093;177;
1557322556;5/8/2019 1:35:56 PM;11.2222;15.5556;92;990.214;1.06093;167;
1557322616;5/8/2019 1:36:56 PM;11.1667;15.5556;92;990.214;3.1828;138;
1557322676;5/8/2019 1:37:56 PM;11.1667;15.5556;92;990.146;1.06093;151;
1557322737;5/8/2019 1:38:57 PM;11.1667;15.5556;92;990.18;3.1828;136;
1557322797;5/8/2019 1:39:57 PM;11.1111;15.5556;92;990.146;2.12187;112;
1557322857;5/8/2019 1:40:57 PM;11.0556;15.5556;92;990.18;0;115;
1557322917;5/8/2019 1:41:57 PM;11.1111;15.5556;92;990.146;1.06093;115;
1557322977;5/8/2019 1:42:57 PM;11.1667;15.5556;92;990.146;0;115;
1557323037;5/8/2019 1:43:57 PM;11.2222;15.5556;93;990.146;2.12187;336;
1557323097;5/8/2019 1:44:57 PM;11.2222;15.5556;92;990.146;0;15;
1557323157;5/8/2019 1:45:57 PM;11.2222;15.5556;93;990.112;2.12187;320;
1557323217;5/8/2019 1:46:57 PM;11.2222;15.5556;92;990.112;2.12187;122;
1557323277;5/8/2019 1:47:57 PM;11.1667;15.5556;92;990.112;4.24374;116;
1557323337;5/8/2019 1:48:57 PM;11.1667;15.5556;92;990.079;1.06093;98;
1557323398;5/8/2019 1:49:58 PM;11.1111;15.5556;92;990.045;1.06093;132;
1557323458;5/8/2019 1:50:58 PM;11.1111;15.5556;92;990.011;4.24374;120;
1557323518;5/8/2019 1:51:58 PM;11.0556;15.5556;92;990.045;4.24374;142;
1557323578;5/8/2019 1:52:58 PM;11.0556;15.5556;92;989.977;3.1828;117;
1557323638;5/8/2019 1:53:58 PM;11;15.5556;92;990.079;2.12187;119;
1557323698;5/8/2019 1:54:58 PM;11.0556;15.5556;92;990.045;2.12187;127;
